User: anonymous   Login
Location: Unspecified
(0.0000°N, 0.0000°E)
Time: 19:25:28
(UTC+00:00)
Language:

STARLINK-6331 - Orbit

View from above orbital plane
View from above orbital plane
View from above satellite
View from above satellite

Ground track
Ground track

The orbit is defined by the following mean orbital elements,

1 57351U          26145.47554782 +.00000000 +00000-0 +16789-4 0 00009
2 57351  43.0036 175.0159 0001796 286.1393  73.9261 15.27575548    09
Epoch (UTC): 25 May 2026 11:24:47
Eccentricity: 0.0001796
inclination: 43.0036°
perigee height: 482 km
apogee height: 484 km
right ascension of ascending node: 175.0159°
argument of perigee: 286.1393°
revolutions per day: 15.27575548
mean anomaly at epoch: 73.9261°

The dashed part of the orbit path shows where the satellite is in the earth's shadow,  

DLR